Imperial, NE

11:31 AM MDT on June 23, 2017 (GMT -0600)
Imperial Municipal

Weather History for KIML - January, 2012

Change the Weather History Date:

Monday, January 23, 2012

  Actual Average Record
Temperature  
Mean Temperature 36 °F 29 °F  
Max Temperature 50 °F 41 °F 72 °F (1981)
Min Temperature 21 °F 16 °F -13 °F (1937)
Degree Days  
Heating Degree Days 29 36  
Month to date heating degree days 745 848  
Cooling Degree Days 0 0  
Month to date cooling degree days 0 0  
Year to date cooling degree days 0 0  
Moisture  
Dew Point 15 °F    
Average Humidity 46    
Maximum Humidity 68    
Minimum Humidity 24    
Precipitation  
Precipitation 0.00 in 0.00 in 0.24 in (1939)
Sea Level Pressure  
Sea Level Pressure 29.95 in    
Wind  
Wind Speed 8 mph (SW)    
Max Wind Speed 18 mph    
Max Gust Speed 25 mph    
Visibility 10 miles    
Events      
T = Trace of Precipitation, MM = Missing Value Source: NWS Daily Summary

Daily Weather History Graph

Daily Weather History Graph

Search for Another Location

Airport or City:

Trip Planner

Search our weather history database for the weather conditions in past years. The results will help you decide how hot, cold, wet, or windy it might be!

Date:

Astronomy

Jan. 23, 2012 Rise Set
Actual Time 7:03 AM MST 4:53 PM MST
Civil Twilight 6:34 AM MST 5:22 PM MST
Nautical Twilight 6:01 AM MST 5:55 PM MST
Astronomical Twilight 5:28 AM MST 6:28 PM MST
Moon 7:00 AM MST 5:43 PM MST
Length of Visible Light 10h 48m
Length of Day
9h 49m
New Moon, 0% of the Moon is Illuminated
Jan 23
New Moon
Jan 30
First Quarter
Feb 7
Full
Feb 14
Last Quarter
Feb 21
New

Hourly Weather History & Observations

Time (MST) Temp. Windchill Dew Point Humidity Pressure Visibility Wind Dir Wind Speed Gust Speed Precip Events Conditions
12:53 AM 27.0 °F 16.1 °F 16.0 °F 63% 29.93 in 10.0 mi WNW 12.7 mph - N/A   Clear
1:53 AM 28.9 °F 17.3 °F 16.0 °F 58% 29.92 in 10.0 mi NW 16.1 mph - N/A   Clear
2:53 AM 26.1 °F 15.6 °F 16.0 °F 66% 29.93 in 10.0 mi WNW 11.5 mph - N/A   Clear
3:53 AM 25.0 °F 12.6 °F 15.1 °F 66% 29.94 in 10.0 mi West 15.0 mph - N/A   Clear
4:53 AM 23.0 °F 12.4 °F 12.9 °F 65% 29.96 in 10.0 mi WNW 10.4 mph - N/A   Clear
5:53 AM 21.9 °F 11.0 °F 12.9 °F 68% 29.97 in 10.0 mi West 10.4 mph - N/A   Clear
6:53 AM 21.0 °F 8.6 °F 12.0 °F 68% 29.99 in 10.0 mi West 12.7 mph - N/A   Clear
7:53 AM 24.1 °F 13.1 °F 12.9 °F 62% 30.01 in 10.0 mi West 11.5 mph - N/A   Clear
8:53 AM 35.1 °F 28.6 °F 16.0 °F 46% 30.01 in 10.0 mi West 8.1 mph 19.6 mph N/A   Clear
9:53 AM 39.9 °F 32.5 °F 17.1 °F 40% 30.01 in 10.0 mi SW 12.7 mph - N/A   Clear
10:53 AM 43.0 °F 38.2 °F 18.0 °F 37% 29.97 in 10.0 mi SW 8.1 mph - N/A   Clear
11:53 AM 46.0 °F 43.9 °F 15.1 °F 29% 29.94 in 10.0 mi West 4.6 mph - N/A   Clear
12:53 PM 50.0 °F - 17.1 °F 27% 29.91 in 10.0 mi West 8.1 mph - N/A   Clear
1:53 PM 50.0 °F - 16.0 °F 26% 29.88 in 10.0 mi SW 8.1 mph - N/A   Clear
2:53 PM 48.9 °F - 15.1 °F 26% 29.89 in 10.0 mi SW 5.8 mph - N/A   Clear
3:53 PM 46.9 °F - 16.0 °F 29% 29.90 in 10.0 mi SSW 4.6 mph - N/A   Clear
4:53 PM 42.1 °F - 16.0 °F 35% 29.94 in 10.0 mi Calm Calm - N/A   Clear
5:53 PM 32.0 °F 27.5 °F 15.1 °F 50% 29.98 in 10.0 mi SSE 4.6 mph - N/A   Clear
6:53 PM 30.9 °F 23.5 °F 14.0 °F 50% 29.98 in 10.0 mi SSE 8.1 mph - N/A   Clear
7:53 PM 26.1 °F - 14.0 °F 60% 29.99 in 10.0 mi Calm Calm - N/A   Clear
8:53 PM 28.0 °F 22.8 °F 15.1 °F 58% 29.96 in 10.0 mi SSE 4.6 mph - N/A   Clear
9:53 PM 28.0 °F 22.8 °F 17.1 °F 63% 29.94 in 10.0 mi SSE 4.6 mph - N/A   Clear
10:53 PM 27.0 °F 19.5 °F 18.0 °F 69% 29.96 in 10.0 mi South 6.9 mph - N/A   Clear
11:53 PM 26.1 °F 17.6 °F 18.0 °F 71% 29.94 in 10.0 mi South 8.1 mph - N/A   Clear